sat.trackr.live / text

‹ back to catalog

STARLINK-32806

NORAD 62735 · 2025-014A

PAYLOAD ACTIVE UNKNOWN

§ Identity

Operator
Country
US
Launch date
2025-01-21
Launch site
AFETR
Launch vehicle
Mass (kg)
RCS (m²)

Purposes: comms

External: N2YO · Heavens-Above · Gunter

§ Orbital elements

Epoch: 2026-09-21T07:33:43.703424Z

Period
94.27 min
Inclination
42.9983°
Eccentricity
0.0000766
Mean motion
15.27581900 rev/d
Perigee alt
482.5 km
Apogee alt
483.6 km
Semi-major
6,861.2 km
B*
4.2760e-4
RAAN
129.7842°
Arg perigee
302.0576°
Mean anomaly
58.0201°
Rev number
9,317

§ Raw data

STARLINK-328061 62735U 25014A   26264.31508916  .00011524  00000+0  42760-3 0  99922 62735  42.9983 129.7842 0000766 302.0576  58.0201 15.27581900 93179

JSON: /api/v1/satellites/62735 · /tle

For live sub-satellite position, see the globe view (requires WebGL).

§ Visibility from observer

Set your observer location to see the next 7 days of passes ≥ 10°. The values pass through the URL so the page stays shareable.

No JS? Fill the form by hand. The geolocation button needs JavaScript.